Starlink 1494

operational
NORAD ID: 45760 Int'l Des: 2020-038 Owner: SPXS Country: US Constellation: starlink
LEOCIRCULARSTARLINK_TYPE

Starlink 1494について

説明を読み込み中...

リアルタイム位置

3D地球を読み込み中...

次回通過

高度履歴

Altitude vs Time

uPlot chart will show altitude changes over time

軌道要素

1 45760U 20038AG 25260.91668981 .00138287 00000-0 44094-2 0 9990
2 45760 53.0534 269.2351 0001080 97.2933 146.4494 15.31527223 5866
Epoch: Sep 17, 2025 • Age: 8 hours

現在のステータス

高度 473.3 km
速度 7.63 km/s
衛星直下点 -8.14°S, 12.54°E
打ち上げ日 Jun 13, 2020
運用期間 5.2 years
タイプ internet

技術仕様

分類 Payload
質量 260.00 kg
乾燥質量 248.00 kg
総質量 260.00 kg
長さ 0.20 m
直径 2.80 m
スパン 9.00 m
形状 Box + pan
製造者 SPXS
バスタイプ Starlink
フェーズステータス In Orbit
所有者/国 SPXS/US

大規模コンステレーション

Loading constellations...